Regional Weather Roundup
Issued by NWS Bismarck, ND

Home | Current Version | Previous Version | Text Only | Print | Product List | Glossary On
Versions: 1 2 3 4 5 6 7 8 9 10 11 12 13 14 15 16 17 18 19 20 21 22 23 24 25 26 27 28 29 30 31 32 33 34 35 36 37 38 39 40 41 42 43 44 45 46 47 48 49 50
000
ASUS43 KBIS 291310
RWRBIS

NWR BROADCAST TEXT
NATIONAL WEATHER SERVICE BISMARCK ND
800 AM CDT SUN MAY 29 2016

NOTE: "FAIR" INDICATES FEW OR NO CLOUDS BELOW 12,000 FEET WITH NO
SIGNIFICANT WEATHER AND/OR OBSTRUCTIONS TO VISIBILITY.


CITY           SKY/WX    TMP DP  RH WIND       PRES   REMARKS
WILLISTON      SUNNY     50  47  89 S5        30.01R
MINOT          SUNNY     58  52  80 SW5       29.96S
MINOT AFB      SUNNY     56  51  83 W5        29.96S
BISMARCK       SUNNY     54  52  93 W3        30.02R
DICKINSON      SUNNY     52  46  80 NW8       30.03R
GARRISON         N/A     53  52  96 W6        30.00R
HETTINGER ARPT SUNNY     49  48  97 NW3       30.07R
JAMESTOWN      FOG       57  57 100 W9        29.96R VSB 1
BEACH          FAIR      54  46  76 SW8       30.08S
CARRINGTON     CLOUDY    61  57  88 NW13      29.98S FOG
HAZEN          FAIR      50  50 100 W6        30.04R FOG
LINTON           N/A     54  54 100 W7          N/A
MANDAN         FAIR      55  55 100 W7        30.03R
OAKES            N/A    N/A N/A N/A MISG        N/A
RUGBY          FAIR      55  55 100 W8        29.96S
STANLEY        FAIR      54  54 100 W8        30.01S
WATFORD CITY   FAIR      48  48 100 SW6       30.02S
$$

CITY           SKY/WX    TMP DP  RH WIND       PRES   REMARKS
GRAND FORKS    CLOUDY    59  56  89 NW10      29.92R
GRAND FORKS AF CLOUDY    59  57  94 N7        29.93R
DEVILS LAKE    CLOUDY    60  57  89 W8        29.95S
FARGO          PTSUNNY   61  57  87 NW10      29.92R
CAVALIER       CLOUDY    57  55  94 NW9       29.93R
GRAFTON        CLOUDY    59  59 100 W8        29.94S
GWINNER        FAIR      61  57  88 W12       29.96R
LANGDON        FOG       55  55 100 NW7       29.94S VSB 1/2
ROLLA          FAIR      55  55 100 W10       29.96S
WALHALLA       FAIR      55  52  88 N8        29.93S
$$

CITY           SKY/WX    TMP DP  RH WIND       PRES   REMARKS
ABERDEEN       SUNNY     60  54  80 W9        29.99R
MOBRIDGE       SUNNY     57  51  80 NW7       30.02R
BUFFALO          N/A     50  43  77 W3        30.01R
RAPID CITY     CLOUDY    54  47  77 NW7       30.09R
GLASGOW        SUNNY     51  40  65 CALM      30.00S
SIDNEY         SUNNY     48  45  87 S6        30.03R
WOLF POINT     SUNNY     46  42  86 CALM      30.02S
GLENDIVE       SUNNY     54  45  71 CALM      30.07R
MILES CITY     SUNNY     50  44  80 S3        30.04S
BAKER          SUNNY     49  42  77 CALM      30.06S
$$

CITY           SKY/WX    TMP DP  RH WIND       PRES   REMARKS
BILLINGS       MOSUNNY   47  41  80 SW10      30.07R
GREAT FALLS    MOSUNNY   50  37  61 S9        30.03S
REGINA         SUNNY     50  48  93 SW5       29.94R
ESTEVAN        MOSUNNY   50  48  93 W8        29.97R
$$





USA.gov is the U.S. government's official web portal to all federal, state and local government web resources and services.